Location: Arrien
(42.8963°N, 1.0429°E)
Time: 22:17:43
(UTC+00:00)

NOSS 2-3 (D) - Pass Details

Date: 11 December 2025
Orbit: 497 x 1701 km, 63.3° (Epoch: 24 April)

Event Time Altitude Azimuth Distance (km) Brightness Sun altitude
Rises 16:55:07 0° 192° (SSW) 2,698 7.4 -6.2°
Reaches altitude 10° 16:57:32 10° 181° (S) 1,739 6.3 -6.6°
Maximum altitude 17:00:51 30° 118° (ESE) 907 4.1 -7.2°
Drops below altitude 10° 17:04:08 10° 56° (NE) 1,718 5.2 -7.7°
Enters shadow 17:04:14 10° 55° (NE) 1,751 5.2 -7.8°
